Content
SEND FEEDBACK

Daily
Averages
Monthly
Summary
United States of America

CLEARWATER, FLORIDA


Home > North America > United States > Florida
Elevation: 0 feet     Latitude: 28 09N     Longitude: 082 45W

WEATHER
 
SELECT A DAY
Number of Records: 340,904;   Date Range: 1/1/95 - 12/18/14
 
SHARE

PRINT THIS DATA

[ ← Previous Day ]
WEATHER ALMANAC - JANUARY 23, 2013
[ Next Day → ]
[ °C ]   °F
Weather ElementAverageHighLow
Temperature57.7 °F69.1 °F (3:53 pm)50 °F (6:53 am)
Dewpoint39 °F46 °F (9:53 pm)32 °F (7:53 am)
Humidity51.9 %83 % (11:53 pm)32 % (1:53 pm)
Barometer30.33 in30.39 in (10:53 am)30.29 in (1:53 am)
Wind Speed6.6 mph10.4 mph (3:53 am)
Weather ElementAverage
Visibility10 mi
Wind DirectionESE (121.3 °)

Weather ElementTotal
Precipitation---
Heating Degree Days5.5 (Base 65)
Growing Degree Days9.6 (Base 50)
Averaged from 23 records on January 23, 2013
WEATHER CONDITIONS BREAKOUT
WIND DIRECTION BREAKOUT
WEATHER BY HOUR - JANUARY 23, 2013
[ °C ]   °F
Local TimeTemperatureDewpointHumidityBarometerVisibilityWind DirectionWind SpeedGust SpeedPrecipitationEventsConditions
1:53 AM55.9 °F39.0 °F53 %30.29 in10.0 miNNE (30°)5.8 mphClear
2:53 AM55.0 °F39.9 °F57 %30.29 in10.0 miNorth (10°)8.1 mphClear
3:53 AM55.0 °F37.9 °F53 %30.30 in10.0 miNorth (10°)10.4 mphClear
4:53 AM53.1 °F37.9 °F57 %30.31 in10.0 miNNE (20°)10.4 mphClear
5:53 AM52.0 °F36.0 °F54 %30.32 in10.0 miNNE (30°)9.2 mphClear
6:53 AM50.0 °F35.1 °F57 %30.35 in10.0 miENE (60°)6.9 mphClear
7:53 AM51.1 °F32.0 °F48 %30.36 in10.0 miNE (50°)6.9 mphClear
8:53 AM53.1 °F34.0 °F48 %30.37 in10.0 miNE (50°)9.2 mphClear
9:53 AM57.0 °F34.0 °F42 %30.38 in10.0 miNE (50°)8.1 mphClear
10:53 AM60.1 °F34.0 °F38 %30.39 in10.0 miNE (40°)6.9 mphClear
11:53 AM63.0 °F35.1 °F35 %30.37 in10.0 miNNE (30°)4.6 mphClear
12:53 PM66.0 °F37.0 °F34 %30.33 in10.0 miNNE (30°)6.9 mphClear
1:53 PM68.0 °F37.0 °F32 %30.30 in10.0 miNorth (10°)5.8 mphClear
2:53 PM68.0 °F39.0 °F35 %30.30 in10.0 miNorth (360°)6.9 mphClear
3:53 PM69.1 °F37.9 °F32 %30.29 in10.0 miNorth (350°)6.9 mphClear
4:53 PM64.9 °F41.0 °F42 %30.30 in10.0 miNW (310°)8.1 mphClear
5:53 PM60.1 °F43.0 °F53 %30.31 in10.0 miNW (320°)9.2 mphClear
6:53 PM57.0 °F42.1 °F57 %30.32 in10.0 miNNW (340°)6.9 mphClear
7:53 PM55.9 °F45.0 °F67 %30.33 in10.0 miNNW (340°)6.9 mphClear
8:53 PM55.0 °F45.0 °F69 %30.33 in10.0 miNNW (340°)4.6 mphClear
9:53 PM57.0 °F46.0 °F67 %30.33 in10.0 miNorth (10°)3.5 mphClear
10:53 PM50.0 °F44.1 °F80 %30.33 in10.0 miCalmClear
11:53 PM50.0 °F45.0 °F83 %30.32 in10.0 miCalmClear
Hourly data recorded from KPIE, located miles away from Clearwater, Florida







STORIES FROM OUR PARTNERS